,,,PA_Meas_PMT16A,,PR_Meas_QMR101_102,,RH_Meas_QMH101,,SR_Meas_QMS101,,TA_Meas_QMH101,,GenWind,,GenWind,
date,time,status,PA,status,PR,status,RH,status,SR,status,TA,status,DirAvg,status,SpdAvg,
2008-12-31, 00:00:04,VALID,1001.44,VALID,0,VALID,91.5847,VALID,0,VALID,25.5142,VALID,317,VALID,0.0398437,
2008-12-31, 00:01:04,VALID,1001.39,VALID,0,VALID,91.5389,VALID,0,VALID,25.5532,VALID,317,VALID,0.0105469,
2008-12-31, 00:02:04,VALID,1001.37,VALID,0,VALID,91.333,VALID,0,VALID,25.5513,VALID,317,VALID,0,
2008-12-31, 00:03:04,VALID,1001.33,VALID,0,VALID,91.2262,VALID,0,VALID,25.5921,VALID,348,VALID,0.675781,
2008-12-31, 00:04:04,VALID,1001.32,VALID,0,VALID,91.1804,VALID,0,VALID,25.5921,VALID,353,VALID,0.696875,
2008-12-31, 00:05:04,VALID,1001.29,VALID,0,VALID,91.2872,VALID,0,VALID,25.5921,VALID,353,VALID,0.430469,
2008-12-31, 00:06:04,VALID,1001.26,VALID,0,VALID,91.3406,VALID,0,VALID,25.5727,VALID,353,VALID,0.480469,
2008-12-31, 00:07:04,VALID,1001.26,VALID,0,VALID,91.4703,VALID,0,VALID,25.5727,VALID,354,VALID,0.159375,
2008-12-31, 00:08:04,VALID,1001.24,VALID,0,VALID,91.4398,VALID,0,VALID,25.5532,VALID,353,VALID,0.418359,
2008-12-31, 00:09:04,VALID,1001.26,VALID,0,VALID,91.5389,VALID,0,VALID,25.5727,VALID,353,VALID,0.3625,
2008-12-31, 00:10:04,VALID,1001.29,VALID,0,VALID,91.4398,VALID,0,VALID,25.5921,VALID,320,VALID,0.245312,
2008-12-31, 00:11:04,VALID,1001.31,VALID,0,VALID,91.394,VALID,0,VALID,25.6311,VALID,290,VALID,0.349609,
2008-12-31, 00:12:04,VALID,1001.3,VALID,0,VALID,91.188,VALID,0,VALID,25.67,VALID,290,VALID,0.740625,
2008-12-31, 00:13:04,VALID,1001.3,VALID,0,VALID,91.127,VALID,0,VALID,25.709,VALID,272,VALID,0.405078,
2008-12-31, 00:14:04,VALID,1001.3,VALID,0,VALID,91.0278,VALID,0,VALID,25.7869,VALID,249,VALID,0.517578,
2008-12-31, 00:15:04,VALID,1001.33,VALID,0,VALID,90.8218,VALID,0,VALID,25.8453,VALID,256,VALID,0.735156,
2008-12-31, 00:16:04,VALID,1001.32,VALID,0,VALID,90.6464,VALID,0,VALID,25.8648,VALID,250,VALID,0.453906,
2008-12-31, 00:17:04,VALID,1001.36,VALID,0,VALID,90.4633,VALID,0,VALID,25.9057,VALID,255,VALID,0.945703,
2008-12-31, 00:18:04,VALID,1001.38,VALID,0,VALID,90.0666,VALID,0,VALID,25.9252,VALID,253,VALID,0.544141,
2008-12-31, 00:19:04,VALID,1001.4,VALID,0,VALID,89.8835,VALID,0,VALID,25.9038,VALID,294,VALID,1.07187,
2008-12-31, 00:20:04,VALID,1001.4,VALID,0,VALID,89.6317,VALID,0,VALID,25.8843,VALID,298,VALID,1.09883,
2008-12-31, 00:21:04,VALID,1001.39,VALID,0,VALID,89.7461,VALID,0,VALID,25.8843,VALID,308,VALID,0.796094,
2008-12-31, 00:22:04,VALID,1001.37,VALID,0,VALID,89.7233,VALID,0,VALID,25.9232,VALID,342,VALID,0.805859,
2008-12-31, 00:23:04,VALID,1001.4,VALID,0,VALID,89.7233,VALID,0,VALID,25.9232,VALID,357,VALID,0.864844,
2008-12-31, 00:24:04,VALID,1001.39,VALID,0,VALID,89.8148,VALID,0,VALID,25.9038,VALID,356,VALID,1.0707,
2008-12-31, 00:25:04,VALID,1001.37,VALID,0,VALID,89.8377,VALID,0,VALID,25.8843,VALID,1,VALID,0.987891,
2008-12-31, 00:26:04,VALID,1001.32,VALID,0,VALID,90.036,VALID,0,VALID,25.8434,VALID,2,VALID,1.11797,
2008-12-31, 00:27:04,VALID,1001.32,VALID,0,VALID,90.1123,VALID,0.100563,VALID,25.8044,VALID,1,VALID,0.75,
2008-12-31, 00:28:04,VALID,1001.3,VALID,0,VALID,90.2268,VALID,0.100563,VALID,25.8064,VALID,360,VALID,0.694531,
2008-12-31, 00:29:04,VALID,1001.26,VALID,0,VALID,90.2344,VALID,0,VALID,25.7869,VALID,359,VALID,0.682031,
2008-12-31, 00:30:04,VALID,1001.26,VALID,0,VALID,90.3412,VALID,0,VALID,25.7869,VALID,359,VALID,0.578125,
2008-12-31, 00:31:04,VALID,1001.26,VALID,0,VALID,90.2573,VALID,0,VALID,25.746,VALID,353,VALID,0.693359,
2008-12-31, 00:32:04,VALID,1001.25,VALID,0,VALID,90.2115,VALID,0.100563,VALID,25.7655,VALID,352,VALID,0.758984,
2008-12-31, 00:33:04,VALID,1001.22,VALID,0,VALID,90.2115,VALID,0,VALID,25.7674,VALID,339,VALID,0.759375,
2008-12-31, 00:34:04,VALID,1001.18,VALID,0,VALID,90.1886,VALID,0.100563,VALID,25.7655,VALID,349,VALID,0.472266,
2008-12-31, 00:35:04,VALID,1001.19,VALID,0,VALID,90.2268,VALID,0,VALID,25.7674,VALID,355,VALID,0.416016,
2008-12-31, 00:36:04,VALID,1001.16,VALID,0,VALID,90.2268,VALID,0,VALID,25.746,VALID,355,VALID,0.388672,
2008-12-31, 00:37:04,VALID,1001.15,VALID,0,VALID,90.2344,VALID,0.100563,VALID,25.746,VALID,357,VALID,0.3125,
2008-12-31, 00:38:04,VALID,1001.17,VALID,0,VALID,90.1734,VALID,0,VALID,25.7655,VALID,12,VALID,0.736328,
2008-12-31, 00:39:04,VALID,1001.19,VALID,0,VALID,90.0437,VALID,0,VALID,25.7655,VALID,28,VALID,0.907031,
2008-12-31, 00:40:04,VALID,1001.16,VALID,0,VALID,89.8606,VALID,0,VALID,25.8064,VALID,42,VALID,0.734766,
2008-12-31, 00:41:04,VALID,1001.18,VALID,0,VALID,89.7156,VALID,0,VALID,25.8668,VALID,22,VALID,1.16562,
2008-12-31, 00:42:04,VALID,1001.16,VALID,0,VALID,89.38,VALID,0,VALID,25.9232,VALID,32,VALID,0.791797,
2008-12-31, 00:43:04,VALID,1001.13,VALID,0,VALID,88.9375,VALID,0,VALID,25.9817,VALID,33,VALID,1.0375,
2008-12-31, 00:44:04,VALID,1001.11,VALID,0,VALID,88.5484,VALID,0,VALID,26.0596,VALID,36,VALID,0.714844,
2008-12-31, 00:45:04,VALID,1001.08,VALID,0,VALID,88.289,VALID,0,VALID,26.0791,VALID,38,VALID,0.367578,
2008-12-31, 00:46:04,VALID,1001.05,VALID,0,VALID,87.7932,VALID,0,VALID,26.1375,VALID,56,VALID,0.525781,
2008-12-31, 00:47:04,VALID,1001.01,VALID,0,VALID,87.6253,VALID,0,VALID,26.1979,VALID,56,VALID,0.298828,
2008-12-31, 00:48:04,VALID,1000.98,VALID,0,VALID,87.4041,VALID,0,VALID,26.2154,VALID,56,VALID,0.247656,
2008-12-31, 00:49:04,VALID,1000.94,VALID,0,VALID,87.4117,VALID,0,VALID,26.2349,VALID,56,VALID,0.125,
2008-12-31, 00:50:04,VALID,1000.94,VALID,0,VALID,87.1142,VALID,0,VALID,26.2154,VALID,83,VALID,0.738281,
2008-12-31, 00:51:04,VALID,1000.96,VALID,0,VALID,86.9311,VALID,0,VALID,26.2349,VALID,70,VALID,0.65625,
2008-12-31, 00:52:04,VALID,1000.96,VALID,0,VALID,87.1752,VALID,0,VALID,26.2564,VALID,56,VALID,0,
2008-12-31, 00:53:04,VALID,1000.95,VALID,0,VALID,87.0226,VALID,0,VALID,26.2154,VALID,76,VALID,0.554688,
2008-12-31, 00:54:04,VALID,1000.97,VALID,0,VALID,87.0074,VALID,0,VALID,26.2174,VALID,101,VALID,0.95625,
2008-12-31, 00:55:04,VALID,1000.93,VALID,0,VALID,86.8929,VALID,0,VALID,26.2174,VALID,93,VALID,1.19805,
2008-12-31, 00:56:04,VALID,1000.9,VALID,0,VALID,87.0379,VALID,0,VALID,26.1959,VALID,85,VALID,0.715234,
2008-12-31, 00:57:04,VALID,1000.9,VALID,0,VALID,87.076,VALID,0,VALID,26.157,VALID,52,VALID,0.590625,
2008-12-31, 00:58:04,VALID,1000.89,VALID,0,VALID,87.2973,VALID,0,VALID,26.1395,VALID,40,VALID,0.25,
2008-12-31, 00:59:04,VALID,1000.89,VALID,0,VALID,87.343,VALID,0,VALID,26.1005,VALID,40,VALID,0.149219,
2008-12-31, 01:00:04,VALID,1000.84,VALID,0,VALID,87.4346,VALID,0,VALID,26.081,VALID,38,VALID,0.523047,
2008-12-31, 01:01:04,VALID,1000.82,VALID,0,VALID,87.2057,VALID,0,VALID,26.0401,VALID,20,VALID,1.38789,
2008-12-31, 01:02:04,VALID,1000.78,VALID,0,VALID,87.3965,VALID,0,VALID,26.0791,VALID,31,VALID,0.699609,
2008-12-31, 01:03:04,VALID,1000.76,VALID,0,VALID,87.6101,VALID,0,VALID,26.1005,VALID,24,VALID,0.821875,
2008-12-31, 01:04:04,VALID,1000.78,VALID,0,VALID,87.5567,VALID,0,VALID,26.0401,VALID,28,VALID,1.38945,
2008-12-31, 01:05:04,VALID,1000.79,VALID,0,VALID,87.6863,VALID,0,VALID,26.0206,VALID,13,VALID,0.655859,
2008-12-31, 01:06:04,VALID,1000.77,VALID,0,VALID,87.8694,VALID,0,VALID,26.0226,VALID,35,VALID,0.201172,
2008-12-31, 01:07:04,VALID,1000.8,VALID,0,VALID,88.0144,VALID,0,VALID,25.9622,VALID,85,VALID,0.705469,
2008-12-31, 01:08:04,VALID,1000.8,VALID,0,VALID,88.0831,VALID,0,VALID,25.9642,VALID,88,VALID,0.405078,
2008-12-31, 01:09:04,VALID,1000.81,VALID,0,VALID,88.2051,VALID,0,VALID,25.9447,VALID,88,VALID,0.473047,
2008-12-31, 01:10:04,VALID,1000.85,VALID,0,VALID,88.3272,VALID,0,VALID,25.9427,VALID,81,VALID,0.423438,
2008-12-31, 01:11:04,VALID,1000.84,VALID,0,VALID,88.3348,VALID,0,VALID,25.9213,VALID,86,VALID,0.339063,
2008-12-31, 01:12:04,VALID,1000.88,VALID,0,VALID,88.3958,VALID,0.100563,VALID,25.9427,VALID,72,VALID,0.314063,
2008-12-31, 01:13:04,VALID,1000.88,VALID,0,VALID,88.4721,VALID,0,VALID,25.9427,VALID,72,VALID,0.187891,
2008-12-31, 01:14:04,VALID,1000.85,VALID,0,VALID,88.5026,VALID,0,VALID,25.9018,VALID,52,VALID,0.428125,
2008-12-31, 01:15:04,VALID,1000.84,VALID,0,VALID,88.5866,VALID,0,VALID,25.9232,VALID,40,VALID,0.571875,
2008-12-31, 01:16:04,VALID,1000.84,VALID,0,VALID,88.7315,VALID,0,VALID,25.9038,VALID,13,VALID,0.342578,
2008-12-31, 01:17:04,VALID,1000.85,VALID,0,VALID,88.7849,VALID,0,VALID,25.8843,VALID,23,VALID,0.323828,
2008-12-31, 01:18:04,VALID,1000.82,VALID,0,VALID,88.8841,VALID,0,VALID,25.8453,VALID,23,VALID,0.107422,
2008-12-31, 01:19:04,VALID,1000.84,VALID,0,VALID,88.9756,VALID,0,VALID,25.8259,VALID,23,VALID,0,
2008-12-31, 01:20:04,VALID,1000.84,VALID,0,VALID,89.1206,VALID,0,VALID,25.7655,VALID,23,VALID,0,
2008-12-31, 01:21:04,VALID,1000.86,VALID,0,VALID,89.3189,VALID,0,VALID,25.7674,VALID,23,VALID,0,
2008-12-31, 01:22:04,VALID,1000.84,VALID,0,VALID,89.3647,VALID,0.100563,VALID,25.7265,VALID,357,VALID,0,
2008-12-31, 01:23:04,VALID,1000.82,VALID,0,VALID,89.4791,VALID,0,VALID,25.7499,VALID,327,VALID,0.416016,
2008-12-31, 01:24:04,VALID,1000.83,VALID,0,VALID,89.6851,VALID,0,VALID,25.6895,VALID,330,VALID,0.198437,
2008-12-31, 01:25:04,VALID,1000.83,VALID,0,VALID,89.7461,VALID,0,VALID,25.6681,VALID,330,VALID,0,
2008-12-31, 01:26:04,VALID,1000.78,VALID,0,VALID,89.9826,VALID,0,VALID,25.67,VALID,330,VALID,0,
2008-12-31, 01:27:04,VALID,1000.76,VALID,0,VALID,90.1657,VALID,0.100563,VALID,25.6292,VALID,330,VALID,0.436719,
2008-12-31, 01:28:04,VALID,1000.69,VALID,0,VALID,90.387,VALID,0,VALID,25.6116,VALID,330,VALID,0.394922,
2008-12-31, 01:29:04,VALID,1000.69,VALID,0,VALID,90.4327,VALID,0,VALID,25.5532,VALID,336,VALID,0.436719,
2008-12-31, 01:30:04,VALID,1000.67,VALID,0,VALID,90.6921,VALID,0,VALID,25.4734,VALID,336,VALID,0.216406,
2008-12-31, 01:31:04,VALID,1000.64,VALID,0,VALID,90.8905,VALID,0,VALID,25.4344,VALID,11,VALID,0.516016,
2008-12-31, 01:32:04,VALID,1000.61,VALID,0,VALID,91.0888,VALID,0.100563,VALID,25.3955,VALID,12,VALID,0.326562,
2008-12-31, 01:33:04,VALID,1000.59,VALID,0,VALID,91.2643,VALID,0,VALID,25.3779,VALID,33,VALID,0.95625,
2008-12-31, 01:34:04,VALID,1000.58,VALID,0,VALID,91.3101,VALID,0,VALID,25.376,VALID,30,VALID,0.727734,
2008-12-31, 01:35:04,VALID,1000.55,VALID,0,VALID,91.2796,VALID,0,VALID,25.4363,VALID,27,VALID,1.25039,
2008-12-31, 01:36:04,VALID,1000.53,VALID,0,VALID,91.0431,VALID,0.100563,VALID,25.4948,VALID,23,VALID,1.45938,
2008-12-31, 01:37:04,VALID,1000.53,VALID,0,VALID,90.5319,VALID,0,VALID,25.5902,VALID,35,VALID,1.7125,
2008-12-31, 01:38:04,VALID,1000.57,VALID,0,VALID,89.9979,VALID,0,VALID,25.6895,VALID,19,VALID,1.31562,
2008-12-31, 01:39:04,VALID,1000.56,VALID,0,VALID,89.4715,VALID,0,VALID,25.8064,VALID,30,VALID,0.842188,
2008-12-31, 01:40:04,VALID,1000.56,VALID,0,VALID,88.9527,VALID,0,VALID,25.8453,VALID,32,VALID,0.832422,
2008-12-31, 01:41:04,VALID,1000.55,VALID,0,VALID,88.6247,VALID,0,VALID,25.9057,VALID,14,VALID,1.09766,
2008-12-31, 01:42:04,VALID,1000.54,VALID,0,VALID,88.5103,VALID,0,VALID,25.9427,VALID,49,VALID,0.328125,
2008-12-31, 01:43:04,VALID,1000.53,VALID,0,VALID,88.2509,VALID,0,VALID,25.9622,VALID,23,VALID,0.9625,
2008-12-31, 01:44:04,VALID,1000.49,VALID,0,VALID,88.0678,VALID,0,VALID,26.0031,VALID,34,VALID,0.794531,
2008-12-31, 01:45:04,VALID,1000.47,VALID,0,VALID,87.9762,VALID,0,VALID,26.0031,VALID,28,VALID,0.733594,
2008-12-31, 01:46:04,VALID,1000.41,VALID,0,VALID,87.961,VALID,0,VALID,26.0031,VALID,29,VALID,1.0875,
2008-12-31, 01:47:04,VALID,1000.43,VALID,0,VALID,87.9762,VALID,0,VALID,25.9836,VALID,34,VALID,1.27813,
2008-12-31, 01:48:04,VALID,1000.42,VALID,0,VALID,88.0754,VALID,0,VALID,25.9622,VALID,23,VALID,1.31406,
2008-12-31, 01:49:04,VALID,1000.47,VALID,0,VALID,88.1288,VALID,0,VALID,25.9836,VALID,28,VALID,0.640625,
2008-12-31, 01:50:04,VALID,1000.45,VALID,0,VALID,88.167,VALID,0,VALID,25.9622,VALID,53,VALID,0.426562,
2008-12-31, 01:51:04,VALID,1000.5,VALID,0,VALID,88.2661,VALID,0,VALID,25.9836,VALID,71,VALID,0.537891,
2008-12-31, 01:52:04,VALID,1000.48,VALID,0,VALID,88.2356,VALID,0,VALID,25.9836,VALID,92,VALID,0.820703,
2008-12-31, 01:53:04,VALID,1000.48,VALID,0,VALID,88.2127,VALID,0,VALID,25.9622,VALID,68,VALID,1.41367,
2008-12-31, 01:54:04,VALID,1000.45,VALID,0,VALID,88.1136,VALID,0,VALID,26.0012,VALID,97,VALID,1.0332,
2008-12-31, 01:55:04,VALID,1000.41,VALID,0,VALID,87.9686,VALID,0,VALID,26.0012,VALID,93,VALID,0.920313,
2008-12-31, 01:56:04,VALID,1000.37,VALID,0,VALID,88.022,VALID,0,VALID,26.0226,VALID,73,VALID,0.883984,
2008-12-31, 01:57:04,VALID,1000.31,VALID,0,VALID,88.1746,VALID,0,VALID,25.9836,VALID,111,VALID,1.13633,
2008-12-31, 01:58:04,VALID,1000.32,VALID,0,VALID,88.3272,VALID,0,VALID,25.9427,VALID,22,VALID,0.679297,
2008-12-31, 01:59:04,VALID,1000.28,VALID,0,VALID,88.3424,VALID,0,VALID,25.9622,VALID,72,VALID,1.09648,
2008-12-31, 02:00:04,VALID,1000.29,VALID,0,VALID,88.3577,VALID,0,VALID,25.9622,VALID,37,VALID,0.966406,
2008-12-31, 02:01:04,VALID,1000.26,VALID,0,VALID,88.2661,VALID,0,VALID,25.9602,VALID,63,VALID,0.950781,
2008-12-31, 02:02:04,VALID,1000.3,VALID,0,VALID,88.228,VALID,0,VALID,26.0226,VALID,22,VALID,1.21172,
2008-12-31, 02:03:04,VALID,1000.28,VALID,0,VALID,88.0983,VALID,0,VALID,26.0206,VALID,61,VALID,0.48125,
2008-12-31, 02:04:04,VALID,1000.33,VALID,0,VALID,87.9228,VALID,0,VALID,26.0596,VALID,28,VALID,1.11055,
2008-12-31, 02:05:04,VALID,1000.35,VALID,0,VALID,87.7169,VALID,0,VALID,26.1005,VALID,15,VALID,0.311719,
2008-12-31, 02:06:04,VALID,1000.44,VALID,0,VALID,87.8847,VALID,0,VALID,26.12,VALID,223,VALID,1.38555,
2008-12-31, 02:07:04,VALID,1000.5,VALID,0,VALID,87.8923,VALID,0,VALID,26.0985,VALID,209,VALID,2.14141,
2008-12-31, 02:08:04,VALID,1000.54,VALID,0,VALID,88.2661,VALID,0,VALID,26.081,VALID,199,VALID,1.01836,
2008-12-31, 02:09:04,VALID,1000.59,VALID,0,VALID,88.5637,VALID,0,VALID,26.0031,VALID,205,VALID,1.81602,
2008-12-31, 02:10:04,VALID,1000.62,VALID,0,VALID,88.5789,VALID,0,VALID,25.9817,VALID,190,VALID,2.28398,
2008-12-31, 02:11:04,VALID,1000.63,VALID,0,VALID,88.8231,VALID,0,VALID,25.9408,VALID,222,VALID,1.10469,
2008-12-31, 02:12:04,VALID,1000.64,VALID,0,VALID,89.0977,VALID,0,VALID,25.9622,VALID,185,VALID,1.11094,
2008-12-31, 02:13:04,VALID,1000.64,VALID,0,VALID,89.7919,VALID,0.100563,VALID,25.9408,VALID,228,VALID,0.8875,
2008-12-31, 02:14:04,VALID,1000.63,VALID,0.5,VALID,90.5472,VALID,0.100563,VALID,25.9408,VALID,278,VALID,0.587109,
2008-12-31, 02:15:04,VALID,1000.65,VALID,0,VALID,91.0888,VALID,0,VALID,25.8823,VALID,203,VALID,0.628516,
2008-12-31, 02:16:04,VALID,1000.62,VALID,0.5,VALID,91.6839,VALID,0,VALID,25.8044,VALID,275,VALID,0.554297,
2008-12-31, 02:17:04,VALID,1000.6,VALID,0,VALID,92.0424,VALID,0,VALID,25.748,VALID,222,VALID,0.603906,
2008-12-31, 02:18:04,VALID,1000.55,VALID,0.5,VALID,92.4773,VALID,0,VALID,25.6895,VALID,242,VALID,0.309766,
2008-12-31, 02:19:04,VALID,1000.57,VALID,0,VALID,92.8892,VALID,0,VALID,25.6681,VALID,241,VALID,0.0527344,
2008-12-31, 02:20:04,VALID,1000.6,VALID,0,VALID,93.0876,VALID,0.100563,VALID,25.6292,VALID,167,VALID,0.245312,
2008-12-31, 02:21:04,VALID,1000.61,VALID,0,VALID,93.1486,VALID,0,VALID,25.6097,VALID,263,VALID,0.569141,
2008-12-31, 02:22:04,VALID,1000.62,VALID,0.5,VALID,93.1639,VALID,0,VALID,25.5727,VALID,287,VALID,0.484766,
2008-12-31, 02:23:04,VALID,1000.6,VALID,0,VALID,93.202,VALID,0,VALID,25.4928,VALID,290,VALID,0.450781,
2008-12-31, 02:24:04,VALID,1000.59,VALID,0,VALID,93.2936,VALID,0,VALID,25.4753,VALID,272,VALID,0.282031,
2008-12-31, 02:25:04,VALID,1000.6,VALID,0,VALID,93.3851,VALID,0.100563,VALID,25.4363,VALID,358,VALID,0.469141,
2008-12-31, 02:26:04,VALID,1000.64,VALID,0,VALID,93.347,VALID,0.100563,VALID,25.3974,VALID,8,VALID,0.4125,
2008-12-31, 02:27:04,VALID,1000.59,VALID,0,VALID,93.4919,VALID,0,VALID,25.3779,VALID,8,VALID,0.08125,
2008-12-31, 02:28:04,VALID,1000.54,VALID,0,VALID,93.5835,VALID,0,VALID,25.3974,VALID,92,VALID,0.598828,
2008-12-31, 02:29:04,VALID,1000.45,VALID,0,VALID,93.6598,VALID,0.100563,VALID,25.3779,VALID,81,VALID,0.896484,
2008-12-31, 02:30:04,VALID,1000.4,VALID,0,VALID,93.6598,VALID,0.100563,VALID,25.3974,VALID,53,VALID,0.451172,
2008-12-31, 02:31:04,VALID,1000.34,VALID,0,VALID,93.7132,VALID,0,VALID,25.3974,VALID,95,VALID,1.28477,
2008-12-31, 02:32:04,VALID,1000.32,VALID,0,VALID,93.7742,VALID,0,VALID,25.3779,VALID,111,VALID,1.46016,
2008-12-31, 02:33:04,VALID,1000.3,VALID,0,VALID,93.8734,VALID,0,VALID,25.3779,VALID,107,VALID,0.628516,
2008-12-31, 02:34:04,VALID,1000.27,VALID,0,VALID,93.8581,VALID,0,VALID,25.3584,VALID,92,VALID,1.09492,
2008-12-31, 02:35:04,VALID,1000.26,VALID,0,VALID,93.881,VALID,0,VALID,25.3584,VALID,92,VALID,0.5625,
2008-12-31, 02:36:04,VALID,1000.22,VALID,0,VALID,93.8581,VALID,0.100563,VALID,25.3584,VALID,77,VALID,0.807813,
2008-12-31, 02:37:04,VALID,1000.17,VALID,0,VALID,93.8581,VALID,0,VALID,25.3584,VALID,51,VALID,0.266797,
2008-12-31, 02:38:04,VALID,1000.14,VALID,0,VALID,93.8657,VALID,0,VALID,25.337,VALID,53,VALID,0.883594,
2008-12-31, 02:39:04,VALID,1000.11,VALID,0,VALID,93.8352,VALID,0.100563,VALID,25.3779,VALID,81,VALID,0.742188,
2008-12-31, 02:40:04,VALID,1000.07,VALID,0,VALID,93.8886,VALID,0,VALID,25.3584,VALID,53,VALID,0.462891,
2008-12-31, 02:41:04,VALID,1000.05,VALID,0,VALID,93.8123,VALID,0,VALID,25.3779,VALID,93,VALID,0.655078,
2008-12-31, 02:42:04,VALID,1000.03,VALID,0,VALID,93.7818,VALID,0,VALID,25.3779,VALID,92,VALID,0.878125,
2008-12-31, 02:43:04,VALID,1000.03,VALID,0,VALID,93.7284,VALID,0,VALID,25.3974,VALID,108,VALID,0.986328,
2008-12-31, 02:44:04,VALID,999.999,VALID,0,VALID,93.6979,VALID,0,VALID,25.3779,VALID,74,VALID,0.916797,
2008-12-31, 02:45:04,VALID,1000.02,VALID,0,VALID,93.6521,VALID,0,VALID,25.4188,VALID,114,VALID,1.13828,
2008-12-31, 02:46:04,VALID,1000.01,VALID,0,VALID,93.4996,VALID,0,VALID,25.3974,VALID,105,VALID,1.89141,
2008-12-31, 02:47:04,VALID,999.961,VALID,0,VALID,93.408,VALID,0,VALID,25.4363,VALID,103,VALID,1.59687,
2008-12-31, 02:48:04,VALID,999.931,VALID,0,VALID,93.2325,VALID,0,VALID,25.4363,VALID,94,VALID,1.48047,
2008-12-31, 02:49:04,VALID,999.909,VALID,0,VALID,93.1257,VALID,0,VALID,25.4558,VALID,83,VALID,1.2957,
2008-12-31, 02:50:04,VALID,999.924,VALID,0,VALID,93.0571,VALID,0,VALID,25.4363,VALID,63,VALID,0.699219,
2008-12-31, 02:51:04,VALID,999.883,VALID,0,VALID,93.0876,VALID,0,VALID,25.4383,VALID,73,VALID,0.655078,
2008-12-31, 02:52:04,VALID,999.855,VALID,0,VALID,93.0952,VALID,0,VALID,25.3974,VALID,68,VALID,0.448828,
2008-12-31, 02:53:04,VALID,999.844,VALID,0,VALID,93.1791,VALID,0,VALID,25.3974,VALID,61,VALID,0.218359,
2008-12-31, 02:54:04,VALID,999.829,VALID,0,VALID,93.1868,VALID,0,VALID,25.339,VALID,64,VALID,0.480859,
2008-12-31, 02:55:04,VALID,999.802,VALID,0,VALID,93.2707,VALID,0,VALID,25.3195,VALID,50,VALID,0.33125,
2008-12-31, 02:56:04,VALID,999.779,VALID,0,VALID,93.202,VALID,0,VALID,25.3214,VALID,50,VALID,0.278125,
2008-12-31, 02:57:04,VALID,999.747,VALID,0,VALID,93.2936,VALID,0,VALID,25.3,VALID,48,VALID,0.155859,
2008-12-31, 02:58:04,VALID,999.74,VALID,0,VALID,93.3165,VALID,0,VALID,25.3195,VALID,48,VALID,0.00546875,
2008-12-31, 02:59:04,VALID,999.689,VALID,0,VALID,93.2707,VALID,0,VALID,25.2611,VALID,104,VALID,0.796094,
2008-12-31, 03:00:04,VALID,999.68,VALID,0,VALID,93.2402,VALID,0,VALID,25.2611,VALID,103,VALID,0.960938,
2008-12-31, 03:01:04,VALID,999.643,VALID,0,VALID,93.2325,VALID,0,VALID,25.2611,VALID,127,VALID,0.694141,
2008-12-31, 03:02:04,VALID,999.664,VALID,0,VALID,93.2478,VALID,0,VALID,25.2611,VALID,105,VALID,0.758594,
2008-12-31, 03:03:04,VALID,999.629,VALID,0,VALID,93.1105,VALID,0,VALID,25.2611,VALID,98,VALID,0.789453,
2008-12-31, 03:04:04,VALID,999.613,VALID,0,VALID,92.9961,VALID,0,VALID,25.2611,VALID,95,VALID,0.757031,
2008-12-31, 03:05:04,VALID,999.565,VALID,0,VALID,92.8816,VALID,0,VALID,25.3019,VALID,99,VALID,0.900391,
2008-12-31, 03:06:04,VALID,999.566,VALID,0,VALID,92.7824,VALID,0,VALID,25.2611,VALID,88,VALID,0.927344,
2008-12-31, 03:07:04,VALID,999.546,VALID,0,VALID,92.7901,VALID,0,VALID,25.3019,VALID,82,VALID,0.532812,
2008-12-31, 03:08:04,VALID,999.517,VALID,0,VALID,92.7748,VALID,0,VALID,25.2416,VALID,88,VALID,0.677344,
2008-12-31, 03:09:04,VALID,999.504,VALID,0,VALID,92.8358,VALID,0,VALID,25.2435,VALID,90,VALID,0.232031,
2008-12-31, 03:10:04,VALID,999.529,VALID,0,VALID,92.8892,VALID,0,VALID,25.2027,VALID,99,VALID,0.510938,
2008-12-31, 03:11:04,VALID,999.536,VALID,0,VALID,92.8664,VALID,0,VALID,25.1832,VALID,99,VALID,0.698047,
2008-12-31, 03:12:04,VALID,999.593,VALID,0,VALID,92.8969,VALID,0,VALID,25.1832,VALID,92,VALID,0.447656,
2008-12-31, 03:13:04,VALID,999.617,VALID,0,VALID,92.8435,VALID,0,VALID,25.1637,VALID,91,VALID,0.697656,
2008-12-31, 03:14:04,VALID,999.637,VALID,0,VALID,92.8587,VALID,0,VALID,25.1637,VALID,125,VALID,0.666016,
2008-12-31, 03:15:04,VALID,999.644,VALID,0,VALID,92.8511,VALID,0,VALID,25.1442,VALID,93,VALID,0.542188,
2008-12-31, 03:16:04,VALID,999.679,VALID,0,VALID,92.7748,VALID,0,VALID,25.1248,VALID,118,VALID,0.705469,
2008-12-31, 03:17:04,VALID,999.662,VALID,0,VALID,92.7824,VALID,0,VALID,25.1248,VALID,105,VALID,0.469922,
2008-12-31, 03:18:04,VALID,999.642,VALID,0,VALID,92.7519,VALID,0,VALID,25.1461,VALID,73,VALID,0.477734,
2008-12-31, 03:19:04,VALID,999.608,VALID,0,VALID,92.7596,VALID,0,VALID,25.1248,VALID,73,VALID,0.158594,
2008-12-31, 03:20:04,VALID,999.603,VALID,0,VALID,92.7443,VALID,0,VALID,25.1053,VALID,73,VALID,0.105469,
2008-12-31, 03:21:04,VALID,999.592,VALID,0,VALID,92.7977,VALID,0,VALID,25.1267,VALID,74,VALID,0.396875,
2008-12-31, 03:22:04,VALID,999.583,VALID,0,VALID,92.8587,VALID,0,VALID,25.0663,VALID,74,VALID,0.375781,
2008-12-31, 03:23:04,VALID,999.6,VALID,0,VALID,92.8587,VALID,0,VALID,25.0682,VALID,74,VALID,0.101172,
2008-12-31, 03:24:04,VALID,999.563,VALID,0,VALID,92.935,VALID,0,VALID,25.0274,VALID,74,VALID,0,
2008-12-31, 03:25:04,VALID,999.569,VALID,0,VALID,92.9579,VALID,0,VALID,25.0079,VALID,74,VALID,0.212109,
2008-12-31, 03:26:04,VALID,999.58,VALID,0,VALID,93.0495,VALID,0,VALID,24.9885,VALID,71,VALID,0.160938,
2008-12-31, 03:27:04,VALID,999.608,VALID,0,VALID,93.0876,VALID,0,VALID,24.9885,VALID,71,VALID,0,
2008-12-31, 03:28:04,VALID,999.643,VALID,0,VALID,93.1334,VALID,0,VALID,24.9885,VALID,71,VALID,0.269141,
2008-12-31, 03:29:04,VALID,999.639,VALID,0,VALID,93.1486,VALID,0,VALID,24.9885,VALID,71,VALID,0,
2008-12-31, 03:30:04,VALID,999.661,VALID,0,VALID,93.1563,VALID,0,VALID,24.969,VALID,76,VALID,0.483203,
2008-12-31, 03:31:04,VALID,999.702,VALID,0,VALID,93.2173,VALID,0,VALID,24.9904,VALID,98,VALID,0.649609,
2008-12-31, 03:32:04,VALID,999.717,VALID,0,VALID,93.2707,VALID,0,VALID,24.969,VALID,120,VALID,0.605469,
2008-12-31, 03:33:04,VALID,999.702,VALID,0,VALID,93.2707,VALID,0,VALID,24.9904,VALID,166,VALID,0.764844,
2008-12-31, 03:34:04,VALID,999.689,VALID,0,VALID,93.3012,VALID,0,VALID,24.969,VALID,183,VALID,0.612109,
2008-12-31, 03:35:04,VALID,999.693,VALID,0,VALID,93.3165,VALID,0,VALID,24.969,VALID,183,VALID,0.470703,
2008-12-31, 03:36:04,VALID,999.683,VALID,0,VALID,93.2631,VALID,0,VALID,24.969,VALID,183,VALID,0.710156,
2008-12-31, 03:37:04,VALID,999.721,VALID,0,VALID,93.3165,VALID,0,VALID,24.93,VALID,183,VALID,0.447656,
2008-12-31, 03:38:04,VALID,999.749,VALID,0,VALID,93.3699,VALID,0,VALID,24.9319,VALID,183,VALID,0.587109,
2008-12-31, 03:39:04,VALID,999.751,VALID,0,VALID,93.4156,VALID,0,VALID,24.9319,VALID,183,VALID,0.169922,
2008-12-31, 03:40:04,VALID,999.762,VALID,0,VALID,93.4996,VALID,0,VALID,24.9106,VALID,183,VALID,0.371094,
2008-12-31, 03:41:04,VALID,999.786,VALID,0,VALID,93.5682,VALID,0,VALID,24.9106,VALID,183,VALID,0.0636719,
2008-12-31, 03:42:04,VALID,999.786,VALID,0,VALID,93.5911,VALID,0,VALID,24.8911,VALID,183,VALID,0,
2008-12-31, 03:43:04,VALID,999.764,VALID,0,VALID,93.614,VALID,0,VALID,24.8911,VALID,182,VALID,0.420703,
2008-12-31, 03:44:04,VALID,999.78,VALID,0,VALID,93.6598,VALID,0,VALID,24.8716,VALID,37,VALID,0.783203,
2008-12-31, 03:45:04,VALID,999.794,VALID,0,VALID,93.7284,VALID,0,VALID,24.8308,VALID,37,VALID,0.45625,